COSMOS 337

Satellite information

Favourite Embed

Satellite Type and Status

PAYLOADIN ORBIT

Key statistics

Satellite COSMOS 337 at a glance.

Uptime

20284

Days in orbit

Revolutions

≈ 12.4

Per day

Orbit

LEO

Low Earth Orbit

Inclination

74.0

Latest

Satellite identification and parameters

Extended collection of information and parameters for COSMOS 337.

Object identification

Identified? True

Debris? False

Object name: COSMOS 337

International designator: 1970-036B

Object number (NORAD): 4384

Object ID (CCSDS): 4384

Country: COMMONWEALTH OF INDEPENDENT STATES (CIS)

Current information (Y/N): Y

RCS size: MEDIUM

Orbital parameters

Period: 116.199 minutes

Inclination: 74.0309 deg

SMA: 7887.918 km

Apoapsis: 1552.718 km

Periapsis: 1466.848 km

RAAN: 348.8911 deg

Eccentricy: 0.0054431

Argument of periapsis: 273.943 deg

Mean anomaly: 240.1027 deg

Mean motion: 12.39250709 rev/day

Mean motion (dot): 0.00000011 rev/day2

B* drag term: 0.00020288 1/REarth

Two-line elements (TLE)

Creation date: Nov. 4, 2025, 11:56 p.m.

Reference frame: TEME

Reference center: EARTH

Epoch: Nov. 4, 2025, 1:44 p.m. UTC

TLE line 0: 0 COSMOS 337

TLE line 1: 1 4384U 70036B 25308.57274759 .00000011 00000-0 20288-3 0 9994

TLE line 2: 2 4384 74.0309 348.8911 0054431 273.9430 240.1027 12.39250709511903

Live tracking on map

Real-time ground track for satellite COSMOS 337.

In-orbit conjunctions

A list of the most updated potential collisions computed for object COSMOS 337.

Target Orbit TCA Probability of collision Miss distance Type
SL-14 DEB LEO 2024-10-27 09:38:33 0.0006381162 211.0 (m) DEBRIS

Associated space launch

Military communications satellites

COSMOS 337 was lifted into orbit during the mission ‘Kosmos-3M | Strela-1M 1-8’, on board a Kosmos-3M space rocket.

The launch took place on April 25, 1970, 5:09 p.m. from 132/2.

For more information about the launch, click the button.

Launch to space Kosmos-3M | Strela-1M 1-8
Kosmos-3M | Strela-1M 1-8

Agency: N/A

Status: Launch Successful

Launch date: April 25, 1970, 5:09 p.m. UTC

Rocket: Kosmos-3M

Launch pad: 132/2

Location: Plesetsk Cosmodrome, Russian Federation

...

Latest news about this satellite

There are no fresh news available about this satellite. Check back as we update our databases every day.


Newsletter sign-up

Weekly statistics, charts and insights to help you stay on top of the space industry.